Home > Weather > Formosa > Past weeks

Flag for Argentina Past Weather in Formosa, Formosa, Argentina — Yesterday and Last 2 Weeks

Now
70 °F

Clear.


Feels Like: 70 °F
Forecast: 52 / 77 °F
Wind: 10 mph from Northeast

Location: Formosa Aerodrome

Current Time: Jul 23, 2016 at 12:12:48 PM

Latest Report: Jul 23, 2016 at 11:00 AM


Visibility: 5 mi

Pressure: 30.01 "Hg

Humidity: 69%

Dew Point: 59 °F

Location of FormosaLocation

Past Weather in Formosa — Graph

°F

Formosa Temperature Yesterday

Maximum temperature yesterday: 73 °F (at 2:00 PM)
Minimum temperature yesterday: 41 °F (at 5:00 AM)
Average temperature yesterday: 56 °F

High & Low Weather Summary for the Past Weeks

 TemperatureHumidityPressure
High84 °F (Jul 14, 1:00 PM)100% (Jul 9, 1:00 AM)30.36 "Hg (Jul 9, 1:00 AM)
Low39 °F (Jul 19, 7:00 AM)38% (Jul 22, 2:00 PM)29.68 "Hg (Jul 10, 6:00 PM)
Average60 °F79%30.03 "Hg
* Reported Jul 8 11:00 AM — Jul 23 11:00 AM, Formosa, Weather by CustomWeather, © 2016

Note: Actual official high and low records may vary slightly from our data, if they occured in-between our weather recording intervals... More about our weather records

Advertising

Formosa Weather History for the Previous 24 Hours

Scroll right to see more
 ConditionsComfort  
Time TempWeatherWind HumidityBarometerVisibility
11:00 AM
Sat, Jul 23
70 °FClear.10 mph69%30.01 "Hg5 mi
10:00 AM64 °FClear.9 mph78%29.98 "Hg4 mi
9:00 AM57 °FFog.8 mph88%29.98 "Hg2 mi
8:00 AM50 °FFog.5 mph100%29.95 "Hg2 mi
7:00 AM52 °FSunny.3 mph94%29.95 "Hg10 mi
6:00 AM52 °FClear.5 mph94%29.95 "Hg10 mi
5:00 AM52 °FCool.3 mph94%29.95 "HgN/A
4:00 AM54 °FClear.3 mph88%29.95 "Hg10 mi
3:00 AM54 °FClear.3 mph77%29.98 "Hg10 mi
2:00 AM54 °FClear.2 mph94%29.98 "Hg10 mi
1:00 AM54 °FPassing clouds.3 mph94%30.01 "HgN/A
12:00 AM54 °FClear.3 mph88%30.01 "Hg10 mi
11:00 PM
Fri, Jul 22
55 °FClear.3 mph82%30.01 "Hg10 mi
10:00 PM54 °FClear.5 mph88%30.01 "Hg10 mi
9:00 PM55 °FClear.3 mph88%30.01 "HgN/A
8:00 PM57 °FClear.3 mph82%30.01 "HgN/A
7:00 PM63 °FClear.3 mph77%29.98 "HgN/A
6:00 PM68 °FClear.No wind56%30.01 "HgN/A
5:00 PM73 °FClear.5 mph44%30.01 "HgN/A
4:00 PM73 °FClear.9 mph41%30.01 "HgN/A
3:00 PM73 °FClear.6 mph44%30.04 "HgN/A
2:00 PM73 °FClear.7 mph38%30.07 "HgN/A
1:00 PM70 °FClear.8 mph46%30.09 "HgN/A
12:00 PM66 °FClear.5 mph52%30.12 "Hg5 mi
Weather by CustomWeather, © 2016

See weather overviewHow to use our weather pages